User: anonymous   Login
Location: Browne Barr
(41.2080°N, 111.9480°W)
Time: 01:53:34
(UTC+00:00)
Language:

EO-79 - Orbit

View from above orbital plane
View from above orbital plane
View from above satellite
View from above satellite

Ground track
Ground track

The orbit data is extracted from the following two-line orbital elements,

1 40025U 14033R   21206.24121866  .00000497  00000-0  58084-4 0  9992
2 40025  97.9329 137.0292 0013685  57.7194 302.5347 14.89481328385044
Epoch (UTC): 25 July 2021 05:47:21
Eccentricity: 0.0013685
inclination: 97.9329°
perigee height: 590 km
apogee height: 609 km
right ascension of ascending node: 137.0292°
argument of perigee: 57.7194°
revolutions per day: 14.89481328
mean anomaly at epoch: 302.5347°
orbit number at epoch: 38504

The dashed part of the orbit path shows where the satellite is in the earth's shadow,  

DLR